Regional Weather Roundup
Issued by NWS

Home | Current Version | Previous Version | Graphics & Text | Print | Product List | Glossary On
Versions: 1 2 3 4 5 6 7 8 9 10 11 12 13 14 15 16 17 18 19 20 21 22 23 24 25 26 27 28 29 30 31 32 33 34 35 36 37 38 39 40 41 42 43 44 45 46 47 48 49 50
569
ASUS45 KABQ 251401
RWRNM
NEW MEXICO REGIONAL WEATHER ROUNDUP
NATIONAL WEATHER SERVICE ALBUQUERQUE NM
800 AM MDT MON JUL 25 2016

NOTE: "FAIR" MEANS FEW OR NO CLOUDS BELOW 12,000 FEET AGL WITH NO
       SIGNIFICANT WEATHER OR OBSTRUCTIONS TO VISION.

      THIS PRODUCT IS RELEASED AS TWO VERSIONS.  ONE VERSION NEAR
      THE TOP OF THE HOUR CONTAINING PRELIMINARY DATA FROM ALBUQUERQUE
      AND OTHER STATIONS.  A FINAL VERSION WITH ADDITIONAL DATA IS
      ISSUED ABOUT 10 MINUTES AFTER THE HOUR.

NMZ501-503-504-510>518-251500-
NORTHWEST PLATEAU/NORTHCENTRAL MOUNTAINS

CITY           SKY/WX    TMP DP  RH WIND       PRES   REMARKS
FARMINGTON     FAIR      71  47  42 E9        30.25R
LOS ALAMOS     FAIR      69  49  48 CALM      30.42R
SANTA FE       FAIR      69  52  54 N5        30.34S
TAOS           FAIR      70  39  32 CALM      30.42S
ANGEL FIRE     FAIR      53  49  86 CALM      30.52S

$$
NMZ402-403-502-505>509-251500-
WESTCENTRAL MOUNTAINS/SOUTHWEST MOUNTAINS

CITY           SKY/WX    TMP DP  RH WIND       PRES   REMARKS
GALLUP         FAIR      69  50  50 CALM      30.34R
GRANTS         FAIR      68  54  61 CALM      30.35S
SILVER CITY    FAIR      75  51  43 NW8       30.24R

$$
NMZ407-409-411-412-251500-
SOUTHERN DESERTS

CITY           SKY/WX    TMP DP  RH WIND       PRES   REMARKS
LORDSBURG      FAIR      75  55  50 W9        30.17R
DEMING         FAIR      75  58  55 W3        30.16R
LAS CRUCES     FAIR      78  56  46 NW3       30.16R
ALAMOGORDO     FAIR      82  54  36 CALM      30.14R
T OR C         FAIR      80  51  36 N6        30.19R

$$
NMZ519>523-251500-
CENTRAL VALLEYS/CENTRAL HIGHLANDS

CITY           SKY/WX    TMP DP  RH WIND       PRES   REMARKS
ALBUQUERQUE    FAIR      76  52  43 CALM      30.27R
DOUBLE EAGLE   MOSUNNY   70  55  60 CALM      30.31R
MORIARTY ARPT  FAIR      67  56  69 CALM      30.35S
CLINES CORNERS FAIR      66  52  60 E10       30.41R
BELEN          FAIR      73  54  52 NW3       30.26R
SOCORRO        FAIR      76  54  46 N12       30.22R

$$
NMZ524>526-539-540-251500-
SOUTHCENTRAL MOUNTAINS

CITY           SKY/WX    TMP DP  RH WIND       PRES   REMARKS
RUIDOSO          N/A     68  50  52 CALM      30.38R

$$
NMZ527>531-251500-
NORTHEAST HIGHLANDS/NORTHEAST PLAINS

CITY           SKY/WX    TMP DP  RH WIND       PRES   REMARKS
LAS VEGAS      FAIR      61  55  81 N6        30.39S
RATON          FAIR      62  54  74 E5        30.35R
CLAYTON        FAIR      70  64  81 NW6       30.26S

$$
NMZ532>537-251500-
EASTCENTRAL PLAINS

CITY           SKY/WX    TMP DP  RH WIND       PRES   REMARKS
TUCUMCARI      FAIR      76  60  57 VRB6      30.19R
CANNON AFB     NOT AVBL
CLOVIS AIRPORT FAIR      75  57  53 NE9       30.19S

$$
NMZ028-029-538-251500-
SOUTHEAST PLAINS

CITY           SKY/WX    TMP DP  RH WIND       PRES   REMARKS
ROSWELL        FAIR      79  55  43 N12       30.14R
ARTESIA        FAIR      81  57  44 N14       30.13R
CARLSBAD       FAIR      82  55  39 NW10      30.10R


$$




USA.gov is the U.S. government's official web portal to all federal, state and local government web resources and services.